Location: Unspecified
(0.0000°N, 0.0000°E)
Time: 19:00:52
(UTC+00:00)

Vanguard 2 Rocket - Pass Details

Date: 18 January 2020
Orbit: 554 x 3327 km, 32.9° (Epoch: 20 February)

Event Time Altitude Azimuth Distance (km) Brightness Sun altitude
Rises 12:19:14 0° 320° (NW) 5,643 10.8 69.3°
Reaches altitude 10° 12:22:48 10° 327° (NNW) 4,978 10.6 69.2°
Maximum altitude 12:37:37 44° 36° (NE) 3,852 10.5 68.4°
Drops below altitude 10° 12:56:20 10° 102° (ESE) 6,239 11.2 66.5°
Sets 13:01:24 0° 107° (ESE) 7,135 11.4 65.9°
